Regional Weather Roundup
Issued by NWS Jackson, KY

Home | Current Version | Previous Version | Graphics & Text | Print | Product List | Glossary On
Versions: 1 2 3 4 5 6 7 8 9 10 11 12 13 14 15 16 17 18 19 20 21 22 23 24 25 26 27 28 29 30 31 32 33 34 35 36 37 38 39 40 41 42 43 44 45 46 47 48 49 50
000
ASUS43 KJKL 020510
RWRJKL

EAST KENTUCKY HOURLY WEATHER ROUNDUP
NATIONAL WEATHER SERVICE JACKSON KY
100 AM EDT WED SEP 02 2015

NOTE: "FAIR" INDICATES FEW OR NO CLOUDS BELOW 12,000 FEET WITH
NO SIGNIFICANT WEATHER AND/OR OBSTRUCTIONS TO VISIBILITY.

* THESE REPORTS ARE NOT UNDER NWS QUALITY CONTROL AND MAY NOT
  REPORT WEATHER SUCH AS PRECIPITATION AND FOG.

KYZ079-080-083-085-087-088-110-112-115-119-120-020600
...EASTERN KENTUCKY...

CITY           SKY/WX    TMP DP  RH WIND       PRES   REMARKS
JACKSON        CLEAR     72  65  78 CALM      30.15S
LONDON         CLEAR     70  65  84 CALM      30.15S
SOMERSET*      CLEAR     66  66 100 CALM      30.15S
MONTICELLO*    CLEAR     65  65 100 CALM      30.17R FOG
WILLIAMSBURG*    N/A     63  63 100 CALM      30.15
MIDDLESBORO*   CLEAR     67  67  99 CALM      30.16S
HAZARD APT*    CLEAR     70  70 100 CALM      30.15S
BLACK MTN*       N/A     66  63  88 CALM        N/A
PIKEVILLE APT* CLEAR     72  68  88 CALM      30.16S
BIG SANDY*     PTCLDY    70  69  95 CALM      30.15S
MOREHEAD APT*  PTCLDY    72  68  88 CALM      30.16S
$$

KYZ035-036-041-042-044-050-067-078-099-020600
...CENTRAL KENTUCKY...

CITY           SKY/WX    TMP DP  RH WIND       PRES   REMARKS
MT STERLING*   CLEAR     66  66 100 CALM      30.15F FOG
FLEMING/MASON* CLEAR     72  66  83 CALM      30.15S
DANVILLE*      CLEAR     68  64  88 CALM      30.16R
RICHMOND*      CLEAR     70  66  88 CALM      30.14R
LEXINGTON      CLEAR     71  65  81 CALM      30.14S
FRANKFORT      CLEAR     69  66  90 CALM      30.12S
$$

KYZ091>093-OHZ055-061-077-WVZ005-015-034-035-042-020600
...SOUTHERN OHIO/WEST VIRGINIA...

CITY           SKY/WX    TMP DP  RH WIND       PRES   REMARKS
COVINGTON      PTCLDY    73  67  81 SW5       30.13R
COLUMBUS       PTCLDY    73  67  81 CALM      30.11S
DAYTON         PTCLDY    69  66  90 SW5       30.13S
WILMINGTON     CLEAR     67  65  93 CALM      30.13S FOG
HUNTINGTON     CLEAR     70  69  97 CALM      30.12S FOG
CHARLESTON     CLEAR     70  67  90 CALM      30.13R
PINEVILLE*     PTCLDY    67  67 100 MISG      30.23S FOG
BECKLEY        PTCLDY    66  62  87 CALM      30.21S
BLUEFIELD      PTCLDY    70  62  76 W3        30.24S
$$

VAZ002-007-008-TNZ017-027-036-066-071-020600
...SOUTHWEST VIRGINIA/EAST TENNESSEE...

CITY           SKY/WX    TMP DP  RH WIND       PRES   REMARKS
WISE*          CLEAR     68  63  83 CALM      30.24S
JONESVILLE*    CLEAR     66  66 100 CALM      30.18S FOG
ABINGDON*      CLEAR     70  65  84 CALM      30.19S
BRISTOL        PTCLDY    69  67  93 CALM      30.16R
KNOXVILLE      MOCLDY    74  69  85 CALM      30.12R
OAK RIDGE      CLEAR     72  68  87 CALM      30.14S
CROSSVILLE     CLEAR     69  66  90 CALM      30.18F FOG
NASHVILLE      PTCLDY    73  67  81 CALM      30.12S
$$

...KEY TO REMARKS...
VSB - VISIBILITY IN MILES
WCI - WIND CHILL INDEX
HX  - HEAT INDEX

$$


USA.gov is the U.S. government's official web portal to all federal, state and local government web resources and services.